This demonstration page uses our WeatherBlox Daily Observations layout. Learn more.

Left ArrowRight Arrow

38.20091, -84.87328

Hourly Observations for July 2, 2021

Temp ( °F °C ) Dew Point ( °F °C ) Humidity (%) Winds ( mph kmh ) Pressure ( in mb ) Visibility ( mi km ) Precip ( " mm )
12:04 am 00:04 Mostly Cloudy with Light Rain 70 21.1 68 20 93 93 NNW 6 9 29.92 1013 4 6 0.03 0.76
12:06 am 00:06 Mostly Cloudy with Heavy Rain 70 21.1 69 20.6 97 97 NW 6 9 29.92 1013 3 4 0.05 1.27
12:13 am 00:13 Cloudy with Light Rain 69 20.6 68 20 96 96 VRB 3 6 29.91 1013 3 4 0.07 1.78
12:21 am 00:21 Cloudy with Light Rain 69 20.6 68 20 96 96 SW 5 7 29.90 1013 10 16 0.07 1.78
12:53 am 00:53 Cloudy 69 20.6 67 19.4 93 93 Calm 29.90 1013 10 16 0.07 1.78
1:53 am 01:53 Mostly Clear 68 20 66 18.9 93 93 Calm 29.89 1012 10 16 0.00 0.00
2:53 am 02:53 Partly Cloudy 67 19.4 66 18.9 97 97 Calm 29.89 1012 10 16 0.00 0.00
3:53 am 03:53 Clear 67 19.4 65 18.3 93 93 NNW 5 7 29.89 1012 10 16 0.00 0.00
4:53 am 04:53 Clear 66 18.9 64 17.8 93 93 NNW 6 9 29.89 1012 10 16 0.00 0.00
5:53 am 05:53 Clear 65 18.3 64 17.8 97 97 NNW 6 9 29.91 1013 9 14 0.00 0.00
6:39 am 06:39 Mostly Cloudy 66 18.9 64 17.8 93 93 N 5 7 29.93 1014 9 14 0.00 0.00
6:53 am 06:53 Cloudy 66 18.9 64 17.8 93 93 NNE 6 9 29.93 1014 8 13 0.00 0.00
7:04 am 07:04 Cloudy with Mist and Fog 66 18.9 64 17.8 93 93 NE 6 9 29.93 1014 6 10 0.00 0.00
7:26 am 07:26 Cloudy with Mist and Fog 66 18.9 65 18.3 96 96 NNE 5 7 29.94 1014 4 6 0.00 0.00
7:53 am 07:53 Cloudy with Mist and Fog 67 19.4 65 18.3 93 93 Calm 29.93 1014 4 6 0.00 0.00
8:04 am 08:04 Cloudy with Mist and Fog 67 19.4 65 18.3 93 93 Calm 29.94 1014 4 6 0.00 0.00
8:12 am 08:12 Cloudy with Mist and Fog 68 20 66 18.9 93 93 NE 5 7 29.95 1014 4 6 0.00 0.00
8:45 am 08:45 Mostly Cloudy with Mist and Fog 70 21.1 66 18.9 87 87 NNE 5 7 29.95 1014 6 10 0.00 0.00
8:53 am 08:53 Mostly Cloudy with Mist and Fog 70 21.1 66 18.9 87 87 NNE 5 7 29.95 1014 6 10 0.00 0.00
9:08 am 09:08 Cloudy with Mist and Fog 70 21.1 67 19.4 90 90 N 6 9 29.96 1014 6 10 0.00 0.00
9:15 am 09:15 Cloudy with Mist and Fog 69 20.6 66 18.9 90 90 N 6 9 29.96 1015 6 10 0.00 0.00
9:51 am 09:51 Mostly Cloudy 72 22 64 18 78 78 NNE 8 13 29.96 1014 10 16 0.00 0.00
9:53 am 09:53 Mostly Cloudy 72 22.2 65 18.3 79 79 NNE 9 15 29.96 1015 10 16 0.00 0.00
10:00 am 10:00 Partly Cloudy 72 22.2 61 16.1 68 68 NE 13 20 29.96 1015 10 16 0.00 0.00
10:53 am 10:53 Sunny 74 23.3 60 15.6 62 62 ENE 9 15 29.97 1015 10 16 0.00 0.00
11:53 am 11:53 Partly Cloudy 74 23.3 62 16.7 67 67 N 7 11 29.98 1015 10 16 0.00 0.00
12:00 pm 12:00 Mostly Cloudy 75 23.9 61 16.1 62 62 N 6 9 29.97 1015 10 16 0.00 0.00
12:37 pm 12:37 Partly Cloudy 75 23.9 62 16.7 64 64 NNE 7 11 29.97 1015 10 16 0.00 0.00
12:53 pm 12:53 Mostly Cloudy 75 23.9 62 16.7 64 64 NNW 8 13 29.98 1015 10 16 0.00 0.00
1:53 pm 13:53 Sunny 78 25.6 59 15 52 52 NNW 10 17 29.97 1015 10 16 0.00 0.00
2:53 pm 14:53 Mostly Sunny 79 26.1 55 12.8 44 44 N 12 19 29.96 1015 10 16 0.00 0.00
3:53 pm 15:53 Mostly Cloudy 80 26.7 57 13.9 45 45 VRB 7 11 29.95 1014 10 16 0.00 0.00
4:53 pm 16:53 Mostly Sunny 79 26.1 55 12.8 44 44 NNE 9 15 29.94 1014 10 16 0.00 0.00
5:53 pm 17:53 Sunny 77 25 53 11.7 43 43 N 8 13 29.94 1014 10 16 0.00 0.00
6:53 pm 18:53 Sunny 76 24.4 52 11.1 43 43 N 7 11 29.94 1014 10 16 0.00 0.00
7:53 pm 19:53 Sunny 75 23.9 53 11.7 46 46 N 7 11 29.95 1014 10 16 0.00 0.00
8:53 pm 20:53 Sunny 71 21.7 54 12.2 55 55 N 5 7 29.95 1014 10 16 0.00 0.00
9:53 pm 21:53 Clear 67 19.4 56 13.3 68 68 N 3 6 29.97 1015 10 16 0.00 0.00
10:53 pm 22:53 Clear 61 16.1 57 13.9 87 87 Calm 29.97 1015 10 16 0.00 0.00
11:53 pm 23:53 Clear 61 16.1 57 13.9 87 87 Calm 29.97 1015 10 16 0.00 0.00

Powered by AerisWeather